Location: Cormont
(50.5693°N, 1.7416°E)
Time: 12:01:38
(UTC+00:00)

MOS 1 - Pass Details

Date: 21 October 2019
Orbit: 879 x 891 km, 99.2° (Epoch: 21 November)

Event Time Altitude Azimuth Distance (km) Brightness Sun altitude
Exits shadow 19:20:37 22° 173° (S) 1,831 5.7 -24.6°
Maximum altitude 19:24:23 74° 256° (WSW) 921 4.4 -25.1°
Drops below altitude 10° 19:30:03 10° 341° (NNW) 2,548 7.1 -26.0°
Sets 19:32:28 0° 344° (NNW) 3,491 7.8 -26.4°
